www.pogodaiklimat.ru

Погода и климат >> Архив погоды >> Малайзия >> Лангкави


ПОГОДА в Лангкави

  • Прогноз погоды в Лангкави
  • Монитор погоды в Лангкави

АРХИВ ПОГОДЫ в Лангкави

Время (UTC), дата Ветер
(напр.,м/с)
 
Видим.   Явления Облачность Т
(С)
Тd
(С)
f
(%)
Тe
(С)
Тes
(С)
Комфортность P
(гПа)
Po
(гПа)
Тmin
(С)
Tmax
(С)
R
(мм)
R24
(мм)
S
(см)
18 15.03 СВ 2 13 км мгла 9/3 800 м
[Sc Ac lent Ci sp]
+28.4 +22.0 68 +37 +37 очень
душно
1012.5 1011.6
00 16.03 В 2 14 км мгла 9/3 600 м
[Cu med, cong Ac trans Ci fib]
+27.3 +22.4 75 +36 +36 очень
душно
1012.4 1011.5 +27.0
06 16.03 В 3 13 км мгла 9/1 660 м
[Cu hum Ac trans Ci fib]
+35.3 +18.9 38 +40 +49 очень
душно
1011.6 1010.7
12 16.03 С 3 13 км мгла 9/1 800 м
[Sc Ac lent Ci sp]
+31.8 +23.2 60 +42 +42 опасность
перегрева
1010.4 1009.6 +36.3
18 16.03 В 3 13 км мгла 9/3 800 м
[Sc Ac lent Ci sp]
+28.8 +19.7 58 +35 +35 очень
душно
1012.4 1011.5
00 17.03 В 1 13 км мгла 9/3 660 м
[Cu hum Ac trans Ci sp]
+27.3 +21.2 69 +34 +35 очень
душно
1012.6 1011.7 +26.3
06 17.03 ЮВ 4 13 км мгла 9/3 660 м
[Cu hum Ac trans Ci sp]
+35.3 +19.7 40 +41 +47 опасность
перегрева
1010.5 1009.6
12 17.03 штиль 0 12 км мгла 9/3 660 м
[Cu Sc Ac trans Ci fib]
+31.6 +24.9 68 +45 +45 опасность
перегрева
1009.5 1008.7 +36.0
18 17.03 В 2 12 км мгла 9/3 750 м
[Sc Ac trans Ci fib]
+29.7 +22.9 67 +40 +40 очень
душно
1011.6 1010.8
00 18.03 В 1 14 км мгла 9/1 660 м
[Cu med, cong Ac lent Ci sp]
+27.0 +23.1 79 +36 +37 очень
душно
1011.3 1010.4 +26.9
06 18.03 З 3 14 км мгла 9/3 660 м
[Cu med, cong Ac lent Ci sp]
+33.5 +26.2 66 +50 +58 опасность
перегрева
1010.2 1009.4
12 18.03 З 1 14 км мгла 9/3 800 м
[Sc Ac trans Ci sp]
+30.5 +26.8 81 +48 +48 опасность
перегрева
1008.8 1008.0 +35.8
18 18.03 СВ 2 14 км мгла 9/3 800 м
[Sc Ac trans Ci sp]
+28.5 +23.6 75 +39 +39 очень
душно
1010.6 1009.8
00 19.03 В 2 14 км мгла 9/3 600 м
[Sc Ac lent Ci fib]
+27.2 +23.1 78 +36 +37 очень
душно
1011.2 1010.3 +26.8
06 19.03 Ю 2 14 км мгла 9/1 660 м
[Cu hum Ac lent Ci fib]
+35.9 +22.7 47 +46 +56 опасность
перегрева
1009.4 1008.6
12 19.03 З 2 13 км мгла 9/1 750 м
[Sc Ac lent Ci sp]
+30.7 +26.7 79 +47 +47 опасность
перегрева
1007.3 1006.5 +36.3
18 19.03 СВ 3 13 км мгла 9/4 500 м
[Cb cap Ac lent Ci sp]
+28.9 +23.0 71 +39 +39 очень
душно
1010.0 1009.2
00 20.03 штиль 0 14 км мгла 9/3 600 м
[Cu med, cong Ac trans Ci sp]
+26.7 +23.2 81 +36 +36 очень
душно
1010.3 1009.5 +26.5
06 20.03 З 3 15 км мгла 9/3 660 м
[Cu med, cong Ac trans Ci sp]
+31.8 +23.3 61 +43 +50 опасность
перегрева
1010.1 1009.3
12 20.03 З 1 12 км мгла 9/3 660 м
[Sc Ac lent Ci fib]
+30.3 +26.7 81 +47 +47 опасность
перегрева
1008.4 1007.6 +30.9
18 20.03 СВ 2 12 км мгла 9/1 800 м
[Sc Ac lent Ci fib]
+28.2 +25.1 83 +41 +41 опасность
перегрева
1011.1 1010.3
00 21.03 В 1 14 км мгла 9/3 500 м
[Cb cap Ac trans Ci fib]
+26.9 +24.4 86 +38 +38 очень
душно
1010.7 1009.9 +26.7
06 21.03 ЮЗ 3 15 км мгла 8/3 660 м
[Cu med, cong Ac trans Ci fib]
+34.0 +26.6 65 +51 +59 опасность
перегрева
1010.6 1009.8
12 21.03 З 2 15 км мгла 9/1 800 м
[Sc Ac trans Ci sp]
+30.7 +26.0 76 +46 +46 опасность
перегрева
1009.0 1008.2 +34.8
18 21.03 В 1 14 км мгла 8/3 800 м
[Sc Ac trans Ci sp]
+27.9 +25.3 86 +41 +41 опасность
перегрева
1011.8 1011.0
00 22.03 СВ 1 15 км 9/3 500 м
[Cb cap Ac lent Ci sp]
+27.5 +25.2 87 +40 +40 очень
душно
1010.8 1010.0 +26.7
06 22.03 ЮЗ 3 12 км слаб. ливневой дождь 9/5 500 м
[Cb cap Ac lent Ci sp]
+32.8 +28.7 79 +55 +61 опасность
перегрева
1010.5 1009.7 0.0
12 22.03 З 3 14 км мгла 9/1 750 м
[Sc Ac trans Ci sp]
+30.6 +27.9 86 +51 +51 опасность
перегрева
1008.6 1007.8 +33.4 0.0

 

Местоположение метеостанции Лангкави (Малайзия): широта 6.33 долгота 99.73 высота над уровнем моря 7 м.

В архиве по умолчанию представлена погода в Лангкави за последнюю неделю. Архивные данные за месяц целиком и за предыдущие месяцы, начиная с января 2011 года, Вы можете получить, выбрав интересующий диапазон дат из раскрывающегося списка и нажав кнопку "Ввод!".


*Определитесь, кто Вы:
робот инопланетянин человек

Внимание! Время в таблицах - всемирное. Для получения местного времени необходимо прибавить поправку, которая равна 7 ч.

Смотрите также архив погоды в соседних городах и на ближайших метеорологических станциях:

Погода в Сатуне (Таиланд) (53 км)
Погода в Хо Хонг Агромете (Таиланд) (53 км)
Погода в Алор Стар (Малайзия) (75 км)
Погода в Садао (Таиланд) (91 км)
Погода в Хатъяе (Таиланд) (101 км)
Погода на Авиабазе Баттерворт (Малайзия) (120 км)
Погода в Пенанге (Малайзия) (129 км)
Погода в Транге (Таиланд) (133 км)
Погода в Сонгкхле (Таиланд) (137 км)
Погода в Пхаттхалунг Агромете (Таиланд) (147 км)

Пояснения к столбцам:

Ветер - указаны скорость ветра в м/с - средняя за 10 мин, порывы в срок и между сроками (в фигурных скобках) и направление, откуда дует ветер: С - северный, СВ - северо-восточный, В - восточный, ЮВ - юго-восточный, Ю - южный, ЮЗ - юго-западный, З - западный, СЗ - северо-западный.
Видимость - горизонтальная дальность видимости в метрах или километрах. При видимости от 1 до 10 км при отсутствии осадков обычно наблюдается дымка, при ухудшении видимости до 1 км и менее - туман. В сухую погоду видимость может ухудшаться дымом, пылью или мглою.
Явления - указаны атмосферные явления, наблюдавшиеся в срок или в последний час перед сроком; фигурными скобками обозначены явления, наблюдавшиеся между сроками (за 1-3 часа до срока); квадратными скобками обозначены град или гололедные отложения с указанием их диаметра в мм.
Облачность - указаны через наклонную черту общая и нижняя облачность в баллах и высота нижней границы облаков в метрах; квадратными скобками обозначены формы облаков: Ci - перистые, Cs - перисто-слоистые, Cc - перисто-кучевые, Ac - высококучевые, As - высокослоистые, Sc - слоисто-кучевые, Ns - слоисто-дождевые, Cu - кучевые, Cb - кучево-дождевые. Подробнее классификацию облаков см. в Атласе облаков (PDF).
T - Температура воздуха - температура, измеренная на высоте 2 м над землей.
Td - Температура точки росы - температура, при понижении до которой содержащийся в воздухе водяной пар достигнет насыщения.
f - Относительная влажность воздуха - влажноcть воздуха, измеренная на высоте 2 м над землей.
Te - Эффективная температура - температура, которую ощущает одетый по сезону человек в тени. Характеристика душности погоды. При расчете учитывается влияние влажности воздуха и скорости ветра на теплоощущения человека.
Tes - Эффективная температура на солнце - температура, которую ощущает человек, с поправкой на солнечный нагрев. Характеристика знойности погоды. Зависит от высоты солнца над горизонтом, облачности и скорости ветра. Ночью, в пасмурную погоду, а также при ветре 12 м/с и более поправка равна нулю.
P - Атмосферное давление - приведенное к уровню моря атмосферное давление.
Po - Атмосферное давление - измеренное на уровне метеостанции атмосферное давление.
Tmin - Минимальная температура - минимум температуры воздуха на высоте 2 м над землей.
Tmax - Максимальная температура - максимум температуры воздуха на высоте 2 м над землей.
R - Количество осадков - Количество выпавших осадков за период времени, мм. При наведении курсора мыши на число - период времени, за который выпало указанное количество осадков.
R24 - Количество осадков - Количество выпавших осадков за 24 часа, мм.
S - Снежный покров - Высота снежного покрова, см. При наведении курсора мыши на число - состояние снежного покрова и степень покрытия местности в баллах.